• In Austria
  • List of Countries
  • For 7 days
  • Water Temperature
  • Satellite Maps
  • Weather Map
  • News
  • Weather Widgets
  • user-avatar
    Login

    Hourly Weather Ischgl

    Today, 20 August, Monday

    Time Temperature Precipitation Wind Pressure Humidity
    00:00 +8°C° 0.3 mm 1 mps 580 mmHg 95%
    01:00 +8°C° 0.3 mm 1 mps 580 mmHg 95%
    02:00 +8°C° 0.1 mm 1 mps 580 mmHg 95%
    03:00 +8°C° 0.1 mm 1 mps 579 mmHg 95%
    04:00 +8°C° 0.1 mm 1 mps 579 mmHg 95%
    05:00 +8°C° 0 mm 1 mps 580 mmHg 94%
    06:00 +9°C° 0 mm 1 mps 580 mmHg 92%
    07:00 +10°C° 0 mm 1 mps 580 mmHg 91%
    08:00 +11°C° 0 mm 1 mps 581 mmHg 83%
    09:00 +13°C° 0 mm 1 mps 582 mmHg 75%
    10:00 +15°C° 0 mm 1 mps 583 mmHg 67%
    11:00 +15°C° 0.4 mm 1 mps 583 mmHg 66%
    12:00 +16°C° 0.4 mm 2 mps 583 mmHg 65%
    13:00 +16°C° 0.4 mm 2 mps 583 mmHg 63%
    14:00 +16°C° 1 mm 2 mps 582 mmHg 67%
    15:00 +15°C° 1 mm 2 mps 582 mmHg 71%
    16:00 +15°C° 1 mm 2 mps 582 mmHg 75%
    17:00 +13°C° 0.8 mm 2 mps 581 mmHg 80%
    18:00 +12°C° 0.8 mm 1 mps 580 mmHg 86%
    19:00 +11°C° 0.8 mm 1 mps 580 mmHg 91%
    20:00 +10°C° 0.2 mm 1 mps 580 mmHg 93%
    21:00 +10°C° 0.2 mm 1 mps 580 mmHg 94%
    22:00 +9°C° 0.2 mm 1 mps 580 mmHg 96%
    23:00 +9°C° 0.1 mm 1 mps 580 mmHg 96%

    Tomorrow, 21 August, Tuesday

    Time Temperature Precipitation Wind Pressure Humidity
    00:00 +8°C° 0.1 mm 1 mps 580 mmHg 96%
    01:00 +8°C° 0.1 mm 1 mps 579 mmHg 96%
    02:00 +8°C° 0 mm 1 mps 579 mmHg 95%
    03:00 +7°C° 0 mm 1 mps 579 mmHg 95%
    04:00 +7°C° 0 mm 1 mps 579 mmHg 94%
    05:00 +8°C° 0 mm 1 mps 579 mmHg 92%
    06:00 +9°C° 0 mm 1 mps 580 mmHg 89%
    07:00 +10°C° 0 mm 1 mps 580 mmHg 87%
    08:00 +12°C° 0.1 mm 1 mps 581 mmHg 79%
    09:00 +14°C° 0.1 mm 1 mps 582 mmHg 70%
    10:00 +16°C° 0.1 mm 1 mps 583 mmHg 62%
    11:00 +16°C° 0.9 mm 1 mps 583 mmHg 61%
    12:00 +16°C° 0.9 mm 2 mps 583 mmHg 60%
    13:00 +17°C° 0.9 mm 2 mps 583 mmHg 60%
    14:00 +16°C° 1.6 mm 2 mps 582 mmHg 64%
    15:00 +16°C° 1.6 mm 2 mps 582 mmHg 68%
    16:00 +15°C° 1.6 mm 2 mps 581 mmHg 72%
    17:00 +14°C° 1.4 mm 1 mps 581 mmHg 78%
    18:00 +13°C° 1.4 mm 1 mps 580 mmHg 84%
    19:00 +11°C° 1.4 mm 1 mps 580 mmHg 90%
    20:00 +11°C° 0.7 mm 1 mps 580 mmHg 91%
    21:00 +10°C° 0.7 mm 1 mps 580 mmHg 92%
    22:00 +10°C° 0.7 mm 1 mps 580 mmHg 92%
    23:00 +10°C° 0.2 mm 1 mps 580 mmHg 92%

    Day after tomorrow, 22 August, Wednesday

    Time Temperature Precipitation Wind Pressure Humidity
    00:00 +10°C° 0.2 mm 1 mps 580 mmHg 92%
    01:00 +9°C° 0.2 mm 1 mps 580 mmHg 92%
    02:00 +9°C° 0 mm 1 mps 579 mmHg 92%
    03:00 +9°C° 0 mm 1 mps 579 mmHg 92%
    04:00 +8°C° 0 mm 1 mps 579 mmHg 92%
    05:00 +9°C° 0 mm 1 mps 579 mmHg 90%
    06:00 +10°C° 0 mm 1 mps 579 mmHg 89%
    07:00 +10°C° 0 mm 1 mps 580 mmHg 87%
    08:00 +12°C° 0.2 mm 1 mps 580 mmHg 80%
    09:00 +13°C° 0.2 mm 1 mps 581 mmHg 74%
    10:00 +15°C° 0.2 mm 1 mps 582 mmHg 67%
    11:00 +15°C° 1.1 mm 1 mps 582 mmHg 67%
    12:00 +15°C° 1.1 mm 1 mps 582 mmHg 68%
    13:00 +16°C° 1.1 mm 1 mps 581 mmHg 68%
    14:00 +15°C° 1.6 mm 1 mps 581 mmHg 72%
    15:00 +14°C° 1.6 mm 1 mps 581 mmHg 76%
    16:00 +14°C° 1.6 mm 1 mps 580 mmHg 79%
    17:00 +13°C° 1 mm 1 mps 580 mmHg 83%
    18:00 +12°C° 1 mm 1 mps 579 mmHg 86%
    19:00 +11°C° 1 mm 1 mps 579 mmHg 90%
    20:00 +10°C° 0.6 mm 1 mps 579 mmHg 90%
    21:00 +10°C° 0.6 mm 1 mps 579 mmHg 91%
    22:00 +9°C° 0.6 mm 1 mps 579 mmHg 91%
    23:00 +9°C° 0.2 mm 1 mps 579 mmHg 91%

    23 August, Thursday

    Time Temperature Precipitation Wind Pressure Humidity
    00:00 +9°C° 0.2 mm 1 mps 578 mmHg 91%
    01:00 +9°C° 0.2 mm 1 mps 578 mmHg 90%
    02:00 +8°C° 0.1 mm 1 mps 578 mmHg 90%
    03:00 +8°C° 0.1 mm 1 mps 578 mmHg 90%
    04:00 +8°C° 0.1 mm 1 mps 577 mmHg 90%
    05:00 +8°C° 0.1 mm 1 mps 578 mmHg 89%
    06:00 +9°C° 0.1 mm 1 mps 578 mmHg 87%
    07:00 +10°C° 0.1 mm 1 mps 578 mmHg 85%
    08:00 +12°C° 0.2 mm 1 mps 579 mmHg 78%
    09:00 +13°C° 0.2 mm 1 mps 580 mmHg 70%
    10:00 +14°C° 0.2 mm 0 mps 581 mmHg 63%
    11:00 +15°C° 0.7 mm 1 mps 580 mmHg 63%
    12:00 +16°C° 0.7 mm 1 mps 580 mmHg 63%
    13:00 +16°C° 0.7 mm 1 mps 580 mmHg 63%
    14:00 +15°C° 1.9 mm 1 mps 579 mmHg 69%
    15:00 +14°C° 1.9 mm 1 mps 579 mmHg 75%
    16:00 +13°C° 1.9 mm 1 mps 578 mmHg 81%
    17:00 +12°C° 1.9 mm 1 mps 578 mmHg 84%
    18:00 +11°C° 1.9 mm 1 mps 577 mmHg 88%
    19:00 +10°C° 1.9 mm 1 mps 577 mmHg 91%
    20:00 +9°C° 0.5 mm 1 mps 577 mmHg 91%
    21:00 +9°C° 0.5 mm 1 mps 577 mmHg 91%
    22:00 +9°C° 0.5 mm 1 mps 576 mmHg 91%
    23:00 +8°C° 0 mm 1 mps 576 mmHg 90%

    24 August, Friday

    Time Temperature Precipitation Wind Pressure Humidity
    00:00 +8°C° 0 mm 1 mps 576 mmHg 90%
    01:00 +8°C° 0 mm 1 mps 575 mmHg 89%
    02:00 +7°C° 0 mm 1 mps 575 mmHg 89%
    03:00 +7°C° 0 mm 1 mps 575 mmHg 89%
    04:00 +6°C° 0 mm 1 mps 574 mmHg 88%
    05:00 +7°C° 0 mm 1 mps 575 mmHg 86%
    06:00 +8°C° 0 mm 1 mps 575 mmHg 83%
    07:00 +9°C° 0 mm 1 mps 576 mmHg 81%
    08:00 +11°C° 0.1 mm 1 mps 576 mmHg 75%
    09:00 +12°C° 0.1 mm 1 mps 577 mmHg 68%
    10:00 +14°C° 0.1 mm 1 mps 577 mmHg 62%
    11:00 +13°C° 0.8 mm 1 mps 577 mmHg 67%
    12:00 +13°C° 0.8 mm 2 mps 577 mmHg 72%
    13:00 +12°C° 0.8 mm 2 mps 576 mmHg 78%
    14:00 +10°C° 2.1 mm 2 mps 576 mmHg 82%
    15:00 +9°C° 2.1 mm 2 mps 575 mmHg 87%
    16:00 +8°C° 2.1 mm 2 mps 575 mmHg 92%
    17:00 +7°C° 2.7 mm 2 mps 575 mmHg 94%
    18:00 +7°C° 2.7 mm 2 mps 574 mmHg 95%
    19:00 +6°C° 2.7 mm 2 mps 574 mmHg 97%
    20:00 +5°C° 2.1 mm 2 mps 574 mmHg 97%
    21:00 +5°C° 2.1 mm 2 mps 574 mmHg 97%
    22:00 +4°C° 2.1 mm 2 mps 573 mmHg 98%
    23:00 +4°C° 3.1 mm 2 mps 573 mmHg 98%

    25 August, Saturday

    Time Temperature Precipitation Wind Pressure Humidity
    00:00 +3°C° 3.1 mm 2 mps 573 mmHg 98%
    01:00 +3°C° 3.1 mm 2 mps 572 mmHg 98%
    02:00 +2°C° 3.1 mm 2 mps 572 mmHg 98%
    03:00 +2°C° 3.1 mm 2 mps 571 mmHg 98%
    04:00 +1°C° 3.1 mm 2 mps 571 mmHg 98%
    05:00 +1°C° 2.3 mm 2 mps 571 mmHg 98%
    06:00 0°C° 2.3 mm 3 mps 571 mmHg 98%
    07:00 -1°C° 2.3 mm 3 mps 571 mmHg 98%
    08:00 -1°C° 0.9 mm 3 mps 571 mmHg 97%
    09:00 0°C° 0.9 mm 3 mps 571 mmHg 96%
    10:00 0°C° 0.9 mm 3 mps 571 mmHg 96%
    11:00 0°C° 0.6 mm 3 mps 571 mmHg 95%
    12:00 0°C° 0.6 mm 3 mps 571 mmHg 94%
    13:00 0°C° 0.6 mm 3 mps 571 mmHg 93%
    14:00 0°C° 1.6 mm 3 mps 571 mmHg 93%
    15:00 0°C° 1.6 mm 3 mps 571 mmHg 94%
    16:00 -1°C° 1.6 mm 3 mps 571 mmHg 95%
    17:00 -1°C° 1.1 mm 3 mps 571 mmHg 95%
    18:00 -1°C° 1.1 mm 3 mps 571 mmHg 96%
    19:00 -2°C° 1.1 mm 3 mps 571 mmHg 96%
    20:00 -2°C° 0.5 mm 3 mps 571 mmHg 96%
    21:00 -2°C° 0.5 mm 3 mps 571 mmHg 96%
    22:00 -4°C° 0.5 mm 3 mps 571 mmHg 96%
    23:00 -4°C° 0.1 mm 3 mps 571 mmHg 96%
    Show more